Flag for U.S.A. Weather past 2 weeks in Honolulu, Hawaii, U.S.A.

Now
78 °F

Scattered clouds.


Feels Like: 80 °F
Forecast: 67 / 78 °F
Wind: 12 mph from Northeast

Location: Honolulu International Airport

Current Time: Mar 1, 2015 at 11:00:24 AM

Latest Report: Mar 1, 2015 at 9:53 AM


Visibility: 10 mi

Pressure: 30.03 "Hg

Humidity: 62%

Dew point: 64 °F

Location of HonoluluLocation

Historic Weather in Honolulu — Graph

°F

Honolulu temperature yesterday

Maximum temperature yesterday: 80 °F (at 12:53 PM)
Minimum temperature yesterday: 71 °F (at 2:53 AM)
Average temperature yesterday: 75 °F

Past Weeks' High & Low Weather Summary

 TemperatureHumidityPressure
High85 °F (Feb 23, 12:53 PM)100% (Feb 14, 10:20 AM)30.07 "Hg (Feb 14, 10:20 AM)
Low63 °F (Feb 15, 4:53 AM)48% (Feb 15, 10:53 AM)29.67 "Hg (Feb 14, 2:53 PM)
Average74 °F73%29.95 "Hg
* Reported Feb 14 8:53 AM — Mar 1 8:53 AM, Honolulu, Weather by CustomWeather, © 2015

Note: Actual official high and low records may vary slightly from our data, if they occured in-between our weather recording intervals... More about our weather records

Advertising

Honolulu weather history for previous 24 hours

 ConditionsComfort  
Time TempWeatherWind HumidityBarometerVisibility
8:53 AM
Sun, Mar 1
76 °FScattered clouds.12 mph67%30.02 "Hg10 mi
7:53 AM72 °FScattered clouds.7 mph76%30.01 "Hg10 mi
6:53 AM71 °FScattered clouds.6 mph76%29.99 "Hg10 mi
5:53 AM71 °FPassing clouds.8 mph76%29.97 "Hg10 mi
4:53 AM71 °FPassing clouds.10 mph76%29.95 "Hg10 mi
3:53 AM71 °FPassing clouds.8 mph78%29.95 "Hg10 mi
2:53 AM71 °FPassing clouds.10 mph78%29.95 "Hg10 mi
1:53 AM71 °FPassing clouds.12 mph78%29.96 "Hg10 mi
12:53 AM71 °FPassing clouds.10 mph78%29.97 "Hg10 mi
11:53 PM
Sat, Feb 28
72 °FPassing clouds.9 mph76%29.97 "Hg10 mi
10:53 PM73 °FPassing clouds.10 mph74%29.99 "Hg10 mi
9:53 PM74 °FPartly cloudy.7 mph71%29.98 "Hg10 mi
8:53 PM74 °FPartly cloudy.9 mph69%29.98 "Hg10 mi
7:53 PM74 °FPartly cloudy.7 mph71%29.97 "Hg10 mi
6:53 PM75 °FPartly cloudy.12 mph69%29.95 "Hg10 mi
5:53 PM76 °FBroken clouds.13 mph67%29.93 "Hg10 mi
4:53 PM78 °FBroken clouds.12 mph64%29.90 "Hg10 mi
3:53 PM79 °FBroken clouds.13 mph62%29.89 "Hg10 mi
2:53 PM79 °FBroken clouds.12 mph62%29.89 "Hg10 mi
1:53 PM79 °FBroken clouds.13 mph62%29.92 "Hg10 mi
12:53 PM80 °FBroken clouds.13 mph60%29.93 "Hg10 mi
11:53 AM79 °FBroken clouds.8 mph65%29.95 "Hg10 mi
Weather by CustomWeather, © 2015

See weather overviewHow to use our weather pages